Location: Rometta
(44.2000°N, 10.0500°E)
Time: 12:39:34
(UTC+00:00)

USA 234 - Pass Details

Date: 20 January 2021
Orbit: 1100 x 1107 km, 123.0° (Epoch: 01 March)

Event Time Altitude Azimuth Distance (km) Brightness Sun altitude
Exits shadow 18:40:16 42° 36° (NE) 1,535 3.7 -26.0°
Maximum altitude 18:40:52 43° 23° (NNE) 1,515 3.7 -26.1°
Drops below altitude 10° 18:46:56 10° 315° (NW) 2,967 6.0 -27.2°
Sets 18:49:32 0° 309° (NW) 3,928 6.9 -27.7°
